Location: Allmannsweiler
(47.6703°N, 9.4987°E)
Time: 02:44:35
(UTC+00:00)

Daily predictions for brighter satellites

Satellite Brightness Start Highest point End
(mag) Time Altitude Azimuth Time Altitude Azimuth Time Altitude Azimuth
ADEOS II 4.4 00:01:48 10° ENE 00:04:08 13° E 00:06:27 10° ESE
NOSS 2-2 (D) 4.2 00:01:36 10° NW 00:06:38 82° SW 00:11:37 20° SE
Cosmos 1461 3.6 00:02:59 10° NW 00:06:31 37° WSW 00:06:31 37° WSW
Cosmos 1867 3.7 00:05:01 33° SW 00:07:31 73° NW 00:13:01 10° NE
Cosmos 1674 Rocket 3.6 00:06:55 51° SW 00:07:49 66° W 00:12:09 10° N
Cosmos 2221 Rocket 4.2 00:06:47 38° WSW 00:07:51 46° WNW 00:12:07 10° N
Cosmos 2298 Rocket 4.0 00:07:41 43° S 00:09:28 79° ESE 00:14:47 10° NNE
Cosmos 1674 3.6 00:10:51 33° W 00:11:19 34° WNW 00:14:48 10° N
USA 306 3.0 00:11:52 51° SSE 00:11:59 51° SE 00:16:02 10° ENE
Cosmos 1238 Rocket 3.6 00:10:05 10° NNW 00:12:06 27° WNW 00:12:06 27° WNW
Thor Agena Rocket 4.1 00:08:19 10° NNE 00:13:28 50° E 00:15:34 32° SSE
ATLAS CENTAUR R/B 3.5 00:11:23 10° WNW 00:13:59 18° W 00:13:59 18° W
USA 307 3.1 00:15:20 47° SE 00:15:26 47° SE 00:19:29 10° ENE
SL-16 R/B 3.8 00:16:08 18° SE 00:18:40 24° ESE 00:23:06 10° NE
ERBS 3.4 00:22:52 30° E 00:22:52 30° E 00:24:52 10° ENE
Cosmos 1980 3.7 00:20:38 38° S 00:22:51 75° ESE 00:28:30 10° NNE
ATLAS 5 CENTAUR R/B 2.9 00:11:50 10° NW 00:23:14 52° WSW 00:24:40 39° SSW
Cosmos 1378 Rocket 4.1 00:22:19 39° WSW 00:23:28 49° WNW 00:27:47 10° N
Cosmos 2333 Rocket 3.7 00:19:42 13° WSW 00:23:53 30° NW 00:28:52 10° NNE
CZ-4C R/B 3.3 00:16:52 10° NW 00:23:53 48° WSW 00:27:53 29° S
Cosmos 1455 Rocket 3.7 00:19:40 10° N 00:24:03 52° ENE 00:26:10 28° SE
USA 215 4.1 00:19:41 10° NE 00:25:57 51° NNW 00:32:14 10° W
Cosmos 332 Rocket 4.0 00:28:23 38° SSE 00:29:58 58° ESE 00:34:41 10° NNE
NOSS 0 Rocket 4.0 00:29:22 32° SW 00:32:29 79° WNW 00:38:47 10° NNE
USA 32 4.0 00:35:15 37° SSW 00:37:22 77° W 00:42:40 10° N
Meteor 1-24 Rocket 4.4 00:34:53 23° SSE 00:38:01 45° E 00:43:12 10° NNE
Meteor 2-10 Rocket 3.6 00:32:47 10° NNW 00:38:31 84° WSW 00:41:17 31° S
Cosmos 1975 Rocket 3.2 00:39:39 37° SSE 00:41:16 68° E 00:45:43 10° NNE
Cosmos 839 Rocket 4.3 00:37:57 10° NW 00:44:11 58° WSW 00:49:12 21° S
USA 308 2.7 00:44:46 45° SW 00:45:59 76° SSE 00:50:10 10° ENE
Cosmos 2219 Rocket 3.8 00:42:56 12° WSW 00:47:13 27° NW 00:51:55 10° N
MOS 1 Rocket 4.4 00:44:05 11° SE 00:47:50 36° ENE 00:51:46 10° N
Cosmos 1025 Rocket 3.2 00:47:03 35° SSE 00:48:45 65° E 00:53:01 10° NNE
Cosmos 1455 3.6 00:46:43 10° N 00:50:09 34° ENE 00:52:38 16° SE
Cosmos 1269 Rocket 4.1 00:45:40 10° NNW 00:50:59 78° ENE 00:55:07 17° SSE
GP-B 3.3 00:52:12 10° N 00:56:34 55° W 00:58:07 36° SW
Meteor 2-5 Rocket 3.8 00:55:38 27° S 00:58:52 78° E 01:04:32 10° NNE
CZ-2D R/B 2.3 00:54:04 10° NNE 00:59:27 65° ESE 01:02:28 26° S
Lacrosse 5 2.4 00:58:31 31° S 01:00:28 45° SE 01:05:19 10° ENE
Cosmos 1300 3.5 00:57:31 10° NNW 01:00:56 33° W 01:01:27 32° WSW
USA 267 4.2 01:02:15 23° SW 01:02:47 24° SW 01:07:53 10° WNW
Cosmos 371 Rocket 4.3 01:06:03 22° WSW 01:08:34 37° WNW 01:13:06 10° N
USA 305 3.0 01:07:08 25° WSW 01:09:28 71° NNW 01:13:40 10° ENE
Cosmos 1544 Rocket 3.6 01:06:00 10° N 01:10:27 81° E 01:13:10 23° SSE
BREEZE-M DEB (TANK) 4.3 00:57:14 10° WSW 01:12:44 89° N 01:16:51 10° ENE
Cosmos 2237 Rocket 2.7 01:11:28 23° WSW 01:14:54 51° WNW 01:20:29 10° NNE
COSMOS 2428 4.5 01:12:30 10° W 01:17:02 24° NW 01:21:35 10° N
AQUA 4.1 01:14:02 10° NNE 01:18:46 62° E 01:21:49 22° S
Cosmos 304 Rocket 4.4 01:17:17 24° WSW 01:19:48 44° WNW 01:24:27 10° NNE
SL-16 R/B 2.5 01:14:42 15° SSE 01:20:01 81° WSW 01:26:19 10° NNW
Helios 1A 3.7 01:17:02 10° SSE 01:21:07 53° ENE 01:25:15 10° N
SAR-Lupe-2 3.9 01:18:49 10° NNE 01:22:24 60° ESE 01:24:09 27° S
Lacrosse 5 rocket 2.0 01:21:54 28° S 01:23:16 38° SE 01:27:03 10° ENE
Cosmos 1953 4.5 01:24:10 10° WNW 01:25:51 12° W 01:26:26 12° W
SME Rocket 3.9 01:24:35 27° SW 01:25:57 35° W 01:30:29 10° NNW
Resurs 1-4 Rocket 2.1 01:23:22 10° N 01:28:38 72° WNW 01:31:56 23° SSW
Cosmos 2074 Rocket 4.0 01:22:21 10° N 01:28:40 79° W 01:33:59 15° S
Cosmos 1943 Rocket 2.2 01:27:58 10° NNW 01:33:36 64° WSW 01:39:11 10° SSE
Cosmos 2297 3.7 01:27:49 10° NNW 01:33:37 81° WSW 01:39:20 10° SSE
Cosmos 1703 4.1 01:35:52 15° SSE 01:38:55 46° E 01:42:43 10° NNE
CRYOSAT 2 4.3 01:38:47 18° S 01:42:29 75° W 01:47:23 10° N
Cosmos 2184 Rocket 4.1 01:37:20 10° NNW 01:43:32 64° W 01:48:45 14° S
Cosmos 2278 Rocket 3.8 01:40:48 10° WNW 01:44:05 16° W 01:45:24 15° WSW
ADEOS II 2.1 01:39:18 10° NNE 01:44:35 87° ESE 01:48:40 17° SSW
IDEFIX/ARIANE 42P 2.7 01:40:12 10° NNE 01:45:30 75° ESE 01:49:52 15° S
Cosmos 1610 Rocket 4.4 01:41:10 10° N 01:47:22 87° W 01:53:30 10° S
USA 306 3.7 01:47:34 10° W 01:51:37 47° NNW 01:55:41 10° ENE
Cosmos 2084 Rocket 3.8 01:49:15 19° WSW 01:51:45 48° NW 01:55:27 10° NNE
Cosmos 292 Rocket 3.9 01:48:10 17° S 01:51:48 70° ESE 01:56:35 10° NNE
USA 307 3.6 01:51:04 10° W 01:55:05 49° NNW 01:59:10 10° ENE
NPP 4.0 01:51:21 10° N 01:56:34 52° WNW 02:00:35 17° SW
ERBS 3.6 01:54:54 12° W 01:57:24 30° NNW 02:00:10 10° NE
Cosmos 2369 Rocket 2.2 01:53:18 10° NNW 01:58:55 84° ENE 02:04:31 10° SSE
SL-16 R/B 2.5 01:58:00 17° SW 02:02:20 61° WNW 02:07:59 10° NNE
Cosmos 2228 3.0 01:58:02 10° N 02:02:26 90° SW 02:06:46 10° S
Cosmos 614 Rocket 4.0 01:57:21 10° NNW 02:02:28 59° WSW 02:07:34 10° S
IRS-1D 4.0 01:57:09 10° NNE 02:02:29 65° ESE 02:07:43 10° S
EO 1 Del DPAF 3.0 01:59:16 10° N 02:02:47 71° WNW 02:05:16 18° SSW
Cosmos 2251 Rocket 3.5 01:59:13 10° NNW 02:04:31 90° WSW 02:09:49 10° SSE
Meteor 1-28 Rocket 3.6 02:03:37 16° SSW 02:06:17 43° W 02:09:52 10° NNW
Cosmos 1656 Rocket 3.7 02:02:52 10° NNW 02:08:19 80° ENE 02:13:44 10° SSE
COSMOS 2455 2.9 02:04:48 15° SSW 02:09:51 87° SE 02:15:56 10° NE
Cosmos 1536 Rocket 3.9 02:08:03 16° SSW 02:11:21 50° WNW 02:15:38 10° N
COSMOS 2441 4.4 02:12:55 10° NNE 02:17:49 89° ESE 02:22:39 10° SSW
Nadezhda 1 Rocket 4.3 02:15:05 12° SSW 02:20:49 56° WNW 02:27:01 10° N
MSX 3.9 02:16:46 10° NNE 02:22:32 74° WNW 02:28:17 10° SSW
Cosmos 1455 3.8 02:22:47 10° NW 02:25:22 18° W 02:27:23 12° SW
Cosmos 1603 4.2 02:20:22 10° S 02:25:51 56° ESE 02:31:24 10° NE
USA 308 4.1 02:21:55 10° W 02:25:52 40° NNW 02:29:51 10° ENE
MOS 1 Rocket 4.3 02:23:22 13° SW 02:26:11 24° W 02:29:42 10° NW
Cosmos 1271 Rocket 3.7 02:26:01 10° NNW 02:29:23 30° W 02:32:45 10° SSW
Cosmos 1606 Rocket 3.6 02:29:12 10° NNW 02:33:35 65° W 02:37:55 10° S
ALOS 3.3 02:32:24 10° NNE 02:36:53 44° E 02:41:20 10° S
CZ-2D R/B 3.7 02:34:58 10° N 02:38:59 22° WNW 02:42:59 10° WSW
CZ-2C R/B 3.4 02:34:05 10° NNE 02:39:03 47° E 02:43:52 10° S
Lacrosse 5 2.6 02:38:28 10° WSW 02:43:27 50° NNW 02:48:25 10° NE
Helios 1B rocket 2.5 02:39:40 10° NNE 02:43:45 83° ESE 02:47:49 10° SSW
Cosmos 2366 rocket 4.0 02:39:39 10° N 02:45:50 86° W 02:52:02 10° S
Cosmos 2341 Rocket 4.2 02:40:02 10° NNW 02:46:20 62° W 02:52:36 10° S
USA 305 4.4 02:45:40 10° WNW 02:49:31 35° N 02:53:23 10° ENE
Meteor 2-1 Rocket 4.5 02:45:18 10° NNW 02:50:55 54° W 02:56:23 10° S
BREEZE-M DEB (TANK) 3.0 02:47:47 10° SW 02:51:56 40° SSE 02:54:07 10° E
Cosmos 407 Rocket 3.6 02:47:09 10° NNW 02:52:26 63° WSW 02:57:36 10° S
SL-8 Rocket 4.1 02:46:49 10° NNW 02:53:05 66° W 02:59:19 10° S
Cosmos 1371 Rocket 4.3 02:50:50 10° S 02:55:57 68° ESE 03:01:07 10° NNE
Cosmos 1943 3.3 02:51:35 10° SSW 02:57:17 79° WNW 03:03:01 10° NNE
